Location: Poughquag
(41.6090°N, 73.6820°W)
Time: 05:18:34
(UTC-04:00)

ITUPSAT 1 - Pass Details

Date: 23 June 2024
Orbit: 695 x 705 km, 98.5° (Epoch: 24 July)

Event Time Altitude Azimuth Distance (km) Brightness Sun altitude
Rises 00:12:10 0° 359° (N) 3,107 ? -24.1°
Reaches altitude 10° 00:14:50 10° 345° (NNW) 2,184 ? -24.2°
Maximum altitude 00:18:28 22° 295° (WNW) 1,514 ? -24.4°
Enters shadow 00:21:14 14° 253° (WSW) 1,921 ? -24.4°
